THOR ABLESTAR DEB, 1608

Orbit data source: Space-Track

THOR ABLESTAR DEB, 1608 is space debris in LEO originally from a launch on Sun, 13 Dec 1964 UTC launched from the Air Force Western Test Range (AFWTR). Debris objects in space refer to the collection of defunct objects orbiting the Earth. Examples of debris include non-operational satellites, rocket bodies, and fragments generated from explosions, collisions, or faulty payload assembly.

Loading next visibility...
Identifier
1608, 1964-083H
Orbit
LEO
Country
Flag of USUS
Related business
Manufacturer
Unknown
Mission
Spacecraft
Bus & Motor
Unknown
Mass
Unknown
Launch date (UTC)
1964-12-13 (61 years ago)
Launch vehicle
Unknown
Launch site
Air Force Western Test Range (AFWTR)
Object type
Payload
Rocket body
Debris
Shape & HBR
Unknown shape, 0.1 m
Radar Cross Section
Small (<0.1 m²)

Expand to show TLE details & history
Last TLE update: 21 hours ago

TLE from 21 hours ago
0 THOR ABLESTAR DEB
1 01608U 64083H   25315.31998442  .00001619  00000-0  14027-2 0  9995
2 01608  89.7600  71.8836 0017946  66.3890 347.1854 13.85771913 44745
Epoch: 2025-11-11T07:40Z
TLE epoch observation values (Epoch: 2025-11-11T07:40:46.653Z)
Latitude
53.62414°
Longitude
-93.6949°
Altitude
939.554 km
Speed
7.394 km/s
True Right ascension
04h 48m 49s
True Declination
53° 27' 50"
Sunlit
Object was in full shadow at epoch
Visualization orbit readout
Latitude
Unknown
Longitude
Unknown
Altitude
Unknown
Speed
Unknown
Apparent Right ascension
Unknown
Apparent Declination
Unknown
Sunlit
N/A
Visualization observer readout
Local Sidereal Time
01:22:33
Azimuth
Unknown
Elevation
Unknown
Doppler factor
Unknown
Orbital elements
Apogee altitude
953.618 km
Perigee altitude
927.35 km
Semi-major axis
7,318.621 km
Eccentricity
0.00179
Inclination
89.76°
RAAN
71.8836°
Arg. of periapsis
66.389°
True anomaly
347.13969°
Mean anomaly
347.1854°
Eccentric anomaly
347.16255°
Mean motion
3.46656 °/min
Orbital period
103.85 mins
BSTAR
0.0014027
Loading maneuver chart data...
Computing Atmospheric mass density...

Documentation

Showing up to 5 results
|